Flag for Greece Weather past 2 weeks in Nikaia, Greece

Now
88 °F

Sunny.


Feels Like: 87 °F
Forecast: 78 / 98 °F
Wind: No wind

Location: Elefsis Airport

Current Time: Jul 30, 2015 at 9:31:28 AM

Latest Report: Jul 30, 2015 at 8:50 AM


Visibility: 10 mi

Pressure: 29.74 "Hg

Humidity: 38%

Dew point: 59 °F

Location of NikaiaLocation

Historic Weather in Nikaia — Graph

°F

Nikaia temperature yesterday

Maximum temperature yesterday: 100 °F (at 1:20 PM)
Minimum temperature yesterday: 77 °F (at 3:50 AM)
Average temperature yesterday: 88 °F

Past Weeks' High & Low Weather Summary

 TemperatureHumidityPressure
High100 °F (Jul 29, 1:20 PM)73% (Jul 25, 5:20 AM)30.01 "Hg (Jul 25, 5:20 AM)
Low70 °F (Jul 25, 4:20 AM)10% (Jul 21, 12:20 AM)29.68 "Hg (Jul 27, 2:50 PM)
Average86 °F36%29.82 "Hg
* Reported Jul 15 8:20 AM — Jul 30 8:20 AM, Nikaia, Weather by CustomWeather, © 2015

Note: Actual official high and low records may vary slightly from our data, if they occured in-between our weather recording intervals... More about our weather records

Advertising

Nikaia weather history for previous 24 hours

 ConditionsComfort  
Time TempWeatherWind HumidityBarometerVisibility
8:20 AM
Thu, Jul 30
86 °FSunny.No wind40%29.74 "Hg10 mi
7:50 AM82 °FSunny.No wind45%29.74 "Hg10 mi
7:20 AM79 °FClear.No wind51%29.74 "Hg10 mi
6:50 AM77 °FClear.5 mph54%29.74 "Hg10 mi
6:20 AM77 °FClear.5 mph54%29.74 "Hg10 mi
5:50 AM79 °FClear.7 mph51%29.71 "Hg10 mi
4:50 AM79 °FClear.6 mph51%29.71 "Hg10 mi
4:20 AM79 °FClear.5 mph51%29.71 "Hg10 mi
3:50 AM79 °FClear.5 mph51%29.71 "Hg10 mi
3:20 AM79 °FClear.5 mph51%29.71 "Hg10 mi
2:50 AM79 °FClear.5 mph51%29.74 "Hg10 mi
2:20 AM79 °FClear.2 mph51%29.74 "Hg10 mi
1:50 AM79 °FClear.5 mph51%29.74 "Hg10 mi
1:20 AM79 °FClear.2 mph51%29.74 "Hg10 mi
12:50 AM82 °FClear.No wind48%29.74 "Hg10 mi
12:20 AM82 °FClear.No wind48%29.74 "Hg10 mi
11:50 PM
Wed, Jul 29
82 °FClear.No wind48%29.74 "Hg10 mi
11:20 PM84 °FClear.No wind45%29.74 "Hg10 mi
10:50 PM84 °FClear.No wind45%29.74 "Hg10 mi
10:20 PM86 °FClear.No wind43%29.71 "Hg10 mi
9:50 PM86 °FClear.No wind43%29.71 "Hg10 mi
9:20 PM86 °FSunny.5 mph43%29.71 "Hg10 mi
8:50 PM86 °FSunny.5 mph43%29.71 "Hg10 mi
8:20 PM86 °FSunny.7 mph49%29.71 "Hg10 mi
7:50 PM88 °FSunny.12 mph49%29.71 "Hg10 mi
7:20 PM91 °FSunny.12 mph41%29.68 "Hg10 mi
6:50 PM95 °FSunny.10 mph30%29.68 "Hg10 mi
6:20 PM97 °FSunny.12 mph25%29.68 "Hg10 mi
5:50 PM97 °FPassing clouds.10 mph27%29.68 "HgN/A
5:20 PM97 °FPassing clouds.10 mph27%29.68 "HgN/A
4:50 PM99 °FPassing clouds.9 mph24%29.68 "HgN/A
4:20 PM99 °FPassing clouds.10 mph24%29.71 "HgN/A
3:50 PM99 °FPassing clouds.10 mph27%29.71 "HgN/A
3:20 PM99 °FPassing clouds.8 mph24%29.71 "HgN/A
2:50 PM99 °FPassing clouds.12 mph25%29.71 "HgN/A
1:50 PM99 °FPassing clouds.8 mph29%29.71 "HgN/A
1:20 PM100 °FPassing clouds.8 mph24%29.71 "HgN/A
12:50 PM99 °FPassing clouds.8 mph25%29.71 "HgN/A
12:20 PM99 °FPassing clouds.6 mph25%29.71 "HgN/A
11:50 AM97 °FPassing clouds.3 mph28%29.71 "HgN/A
11:20 AM95 °FPassing clouds.3 mph30%29.74 "HgN/A
10:20 AM91 °FSunny.3 mph34%29.74 "Hg10 mi
9:50 AM91 °FSunny.3 mph34%29.74 "Hg10 mi
9:20 AM90 °FSunny.No wind36%29.74 "Hg10 mi
Weather by CustomWeather, © 2015

See weather overviewHow to use our weather pages